{"data":{"norad_id":62181,"epoch":"2026-09-21T17:29:50.250048Z","epoch_age_seconds":71495,"freshness":"FRESH","line1":"1 62181U 24225U   26264.72905382  .00012400  00000+0  43504-3 0  9994","line2":"2 62181  70.0004  17.6202 0003618 266.8489  93.2272 15.29583128 99557","mean_motion":15.29583128,"eccentricity":0.0003618,"inclination_deg":70.0004,"raan_deg":17.6202,"arg_perigee_deg":266.8489,"mean_anomaly_deg":93.2272,"bstar":0.00043504,"rev_number":9955,"period_min":94.143297846314,"perigee_km":474.57734761338,"apogee_km":479.53776639483,"semimajor_km":6855.1945570041,"source":"CELESTRAK","updated_at":"2026-09-22T09:00:49.537892Z"}}